Location: Eaton Estates
(41.3089°N, 82.0057°W)
Time: 06:18:00
(UTC+00:00)

Cosmos 1271 Rocket - Pass Details

Date: 17 June 2021
Orbit: 498 x 544 km, 81.2° (Epoch: 27 July)

Event Time Altitude Azimuth Distance (km) Brightness Sun altitude
Rises 09:15:16 0° 341° (NNW) 2,596 6.6 -6.8°
Reaches altitude 10° 09:17:30 10° 333° (NNW) 1,708 5.5 -6.4°
Maximum altitude 09:20:56 36° 266° (W) 810 3.3 -5.9°
Drops below altitude 10° 09:24:22 10° 199° (SSW) 1,704 4.8 -5.4°
Sets 09:26:36 0° 190° (S) 2,588 5.8 -5.1°
